Мадрид, метеограме

Мадрид: време по сату
Уторак, 02 Јуна
Време Падавине Температура Осећа се Притисак Влажност Ветар
01:00 0 мм +20.5° +20.3° 706.000 мм.ж.с 48% 2 м/с, З
02:00 0 мм +19.9° +19.7° 706.000 мм.ж.с 50% 2 м/с, З
03:00 0 мм +19.3° +19.1° 706.000 мм.ж.с 51% 2 м/с, З
04:00 0 мм +19.4° +19.3° 706.000 мм.ж.с 52% 1 м/с, СИ
05:00 0 мм +19.5° +19.5° 706.000 мм.ж.с 53% 1 м/с, И
06:00 0 мм +19.7° +19.7° 706.000 мм.ж.с 54% 1 м/с, И
07:00 0 мм +21° +20.8° 706.000 мм.ж.с 49% 1 м/с, Ј
08:00 0 мм +22.3° +21.9° 707.000 мм.ж.с 44% 1 м/с, Ј
09:00 0 мм +23.6° +23° 707.000 мм.ж.с 39% 1 м/с, Ј
10:00 0 мм +24.7° +24° 707.000 мм.ж.с 36% 2 м/с, ЈЗ
11:00 0 мм +25.8° +24.9° 707.000 мм.ж.с 32% 3 м/с, ЈЗ
12:00 0 мм +26.9° +25.8° 707.000 мм.ж.с 28% 4 м/с, ЈЗ
13:00 0 мм +27.5° +26.2° 706.000 мм.ж.с 26% 4 м/с, ЈЗ
14:00 0 мм +28° +26.5° 706.000 мм.ж.с 24% 4 м/с, ЈЗ
15:00 0 мм +28.5° +26.9° 706.000 мм.ж.с 22% 4 м/с, ЈЗ
16:00 0 мм +27.9° +26.4° 705.000 мм.ж.с 24% 4 м/с, ЈЗ
17:00 0 мм +27.3° +26° 705.000 мм.ж.с 26% 5 м/с, ЈЗ
18:00 0 мм +26.6° +25.5° 704.000 мм.ж.с 28% 5 м/с, ЈЗ
19:00 0 мм +25.2° +24.2° 705.000 мм.ж.с 31% 4 м/с, ЈЗ
20:00 0 мм +23.8° +22.9° 705.000 мм.ж.с 34% 3 м/с, ЈЗ
21:00 0 мм +22.3° +21.6° 705.000 мм.ж.с 38% 3 м/с, ЈЗ
22:00 0 мм +21.8° +21.2° 705.000 мм.ж.с 40% 3 м/с, ЈЗ
23:00 0 мм +21.3° +20.7° 705.000 мм.ж.с 42% 3 м/с, З
Среда, 03 Јуна
Време Падавине Температура Осећа се Притисак Влажност Ветар
00:00 0 мм +20.8° +20.4° 705.000 мм.ж.с 45% 2 м/с, З
01:00 0 мм +20.1° +19.8° 704.000 мм.ж.с 47% 2 м/с, З
02:00 0 мм +19.5° +19.2° 704.000 мм.ж.с 50% 2 м/с, З
03:00 0 мм +18.8° +18.6° 704.000 мм.ж.с 52% 2 м/с, З
04:00 0 мм +18.7° +18.6° 704.000 мм.ж.с 54% 2 м/с, ЈЗ
05:00 0 мм +18.5° +18.5° 704.000 мм.ж.с 56% 2 м/с, ЈЗ
06:00 0 мм +18.4° +18.4° 703.000 мм.ж.с 58% 2 м/с, ЈЗ
07:00 0 мм +20° +20° 704.000 мм.ж.с 54% 3 м/с, ЈЗ
08:00 0 мм +21.6° +21.5° 704.000 мм.ж.с 49% 4 м/с, ЈЗ
09:00 0 мм +23.3° +23° 704.000 мм.ж.с 44% 5 м/с, ЈЗ
10:00 0 мм +24.2° +23.8° 704.000 мм.ж.с 40% 5 м/с, ЈЗ
11:00 0 мм +25.1° +24.6° 703.000 мм.ж.с 37% 6 м/с, ЈЗ
12:00 0 мм +26.1° +25.3° 703.000 мм.ж.с 34% 6 м/с, ЈЗ
13:00 0 мм +26.5° +25.7° 702.000 мм.ж.с 32% 7 м/с, ЈЗ
14:00 0 мм +27° +26.1° 702.000 мм.ж.с 31% 7 м/с, ЈЗ
15:00 0 мм +27.5° +26.5° 702.000 мм.ж.с 30% 7 м/с, ЈЗ
16:00 0 мм +26.8° +26.1° 701.000 мм.ж.с 33% 7 м/с, ЈЗ
17:00 0 мм +26.2° +25.5° 701.000 мм.ж.с 35% 7 м/с, З
18:00 0 мм +25.5° +25° 701.000 мм.ж.с 37% 7 м/с, З
19:00 0.06 мм +24.1° +23.8° 701.000 мм.ж.с 43% 7 м/с, З
20:00 0.06 мм +22.6° +22.5° 701.000 мм.ж.с 48% 6 м/с, З
21:00 0.06 мм +21.1° +21.2° 701.000 мм.ж.с 54% 5 м/с, З
22:00 0.03 мм +20.3° +20.6° 701.000 мм.ж.с 57% 5 м/с, З
23:00 0.03 мм +19.6° +20° 701.000 мм.ж.с 61% 4 м/с, З
Четвтак, 04 Јуна
Време Падавине Температура Осећа се Притисак Влажност Ветар
00:00 0.03 мм +18.9° +19.3° 701.000 мм.ж.с 65% 4 м/с, З

Такође

Meteograms hourly weather Мапе времена Преглед времена
Meteograms hourly weather Мапе времена Преглед времена
 
Време у Србији:
О проjекту
© meteoprog.rs 2003-2020.
Meteoprog.ua - погода в Украине 0.0339
sitemap